Wind_Speed
29 29 29 29 28 26 24 22 21 20 21 22 23 25 28 30 31 29 26 24 24 26 27 28 29 32 33 34 35 37 37 34 31 29 27 23 19 17 14 7 4 6 9 10 12 13 12 10 9 9 7 6 7 10 10 10 10 11 11 11 11 11 12 12 12 13 13 14 14 13 12 11 10 10 9 8 7 7 6 6 6 5 5 6 7
31 31 30 29 28 25 22 21 20 20 20 21 22 23 25 25 24 22 22 23 25 26 27 29 30 31 32 34 35 35 32 30 29 28 24 19 17 16 12 7 4 5 8 9 11 12 12 11 8 7 6 5 6 8 9 9 9 9 10 10 11 10 11 10 10 11 12 13 14 15 14 13 12 11 9 8 8 7 7 7 6 6 5 5 6
31 31 30 28 25 22 20 20 19 20 20 20 21 21 20 19 19 20 22 24 25 27 28 30 30 32 33 34 32 30 29 29 28 25 20 16 15 15 11 7 5 4 6 8 10 10 11 10 8 6 5 5 6 7 7 8 9 9 9 10 10 10 10 10 9 10 11 12 13 14 15 14 14 12 11 9 8 8 8 7 6 6 5 5 5
31 31 29 27 24 21 20 20 19 19 18 18 18 18 17 17 19 21 22 23 26 28 29 30 31 32 32 30 28 27 28 27 25 21 16 14 15 14 10 8 5 3 4 7 9 8 8 9 8 7 6 5 6 6 6 7 7 8 8 9 9 9 10 9 9 9 10 11 12 13 14 14 15 14 13 11 10 9 9 8 7 6 5 5 5
31 30 28 25 23 21 20 19 18 17 17 17 17 18 18 19 20 22 23 24 26 28 29 30 32 31 28 26 26 26 26 25 22 19 15 15 15 14 11 9 6 4 4 7 9 6 6 6 7 8 8 6 4 3 4 5 6 7 8 8 8 9 9 9 9 9 9 9 11 11 12 13 15 15 15 13 11 10 11 10 8 6 5 5 5
31 30 27 23 21 21 20 18 17 16 16 17 18 18 19 20 22 23 24 25 26 28 30 31 29 27 24 24 24 23 23 23 21 19 17 16 15 13 11 9 8 7 7 10 10 6 3 5 6 8 8 6 3 3 5 6 7 7 8 8 7 8 9 8 8 9 8 8 9 10 11 12 14 15 16 15 14 12 11 12 11 8 6 5 5
31 29 25 22 21 21 20 18 16 16 17 18 18 18 20 21 23 25 25 26 28 29 30 27 24 22 22 22 21 21 22 22 21 20 18 17 15 14 12 11 9 9 9 11 11 4 2 4 6 7 6 4 4 5 6 7 6 6 5 7 8 7 8 7 7 7 7 7 8 8 9 10 12 13 15 16 15 13 12 12 13 11 7 5 4
30 28 24 22 21 21 20 18 17 17 18 18 18 19 21 22 23 24 25 27 29 28 25 22 20 20 20 19 20 21 21 21 21 20 18 17 16 14 13 12 10 10 11 12 13 6 3 5 7 7 5 5 6 7 5 5 4 3 1 6 8 8 8 7 6 6 6 7 7 7 7 8 10 12 13 15 16 14 12 11 13 13 10 6 5
30 27 24 21 21 21 21 19 18 18 19 19 20 21 22 23 24 25 26 27 25 22 20 19 19 18 18 18 19 19 21 21 20 19 18 17 16 14 13 12 12 12 12 13 13 9 6 7 8 8 6 7 8 8 4 2 2 0 2 6 8 9 9 9 7 6 7 6 6 6 5 6 8 10 12 14 15 15 14 12 13 14 12 8 5
29 26 23 21 21 21 21 20 20 20 20 21 21 22 24 24 25 25 25 23 20 18 17 17 16 16 17 18 19 20 22 21 20 19 18 17 16 15 14 13 13 13 14 14 13 11 10 9 9 9 8 8 10 9 5 1 0 1 3 5 8 10 10 10 9 8 7 7 6 6 5 5 7 8 10 12 13 14 14 13 13 14 14 10 7
28 25 22 22 22 22 22 21 21 22 22 22 22 23 24 24 24 23 21 19 17 16 16 15 15 16 17 18 20 22 23 23 22 20 19 18 17 17 17 16 16 16 16 15 14 12 11 10 10 10 9 9 10 10 7 4 3 3 4 5 7 9 10 11 12 11 9 7 6 5 5 4 5 7 9 11 12 13 13 13 13 14 13 11 8
26 23 23 23 22 22 22 22 23 23 23 23 22 22 23 23 21 19 17 15 15 14 14 14 15 16 17 18 20 22 24 24 23 22 21 21 20 20 21 21 21 21 20 19 17 16 14 12 11 10 9 9 9 10 10 8 7 6 5 6 7 8 9 10 11 12 9 8 7 7 7 6 5 6 8 10 11 12 12 13 13 13 13 11 9
25 24 24 23 22 22 22 23 24 23 23 22 22 22 21 19 17 15 14 14 13 13 13 14 15 16 17 18 20 22 24 23 23 23 23 23 23 23 23 24 24 24 23 23 23 21 19 17 15 13 11 10 9 10 12 12 12 10 8 7 8 8 9 9 11 11 7 7 7 8 9 9 8 8 8 10 11 11 11 12 13 13 12 11 9
25 25 24 23 23 23 23 24 24 23 23 22 21 20 17 15 14 13 12 12 12 12 13 14 15 16 16 17 19 21 21 21 21 22 22 23 22 23 24 25 25 25 25 26 26 26 24 22 20 17 15 13 10 9 12 14 15 13 11 10 8 9 9 9 11 10 7 7 7 8 10 11 11 10 10 10 11 11 10 11 12 12 11 11 9
25 24 24 23 23 24 24 24 23 22 21 20 18 15 13 12 12 11 11 11 11 12 13 14 15 15 16 17 18 19 19 19 19 20 21 22 22 24 25 26 26 26 26 27 28 28 27 26 24 22 19 15 11 8 9 14 15 14 12 11 9 9 9 9 9 10 9 8 8 8 9 10 11 11 11 10 10 10 10 10 11 12 11 10 9
25 24 24 24 24 24 24 23 21 20 18 16 13 12 11 11 10 10 10 11 11 11 12 13 14 15 15 16 17 17 17 17 19 20 21 22 24 25 25 26 26 27 28 29 29 30 29 28 27 26 23 20 15 10 7 9 11 12 12 11 10 9 9 10 9 9 9 8 8 8 9 10 10 10 11 11 11 10 10 9 9 10 10 9 9
24 24 24 24 24 23 22 20 18 17 14 12 11 11 10 9 10 10 10 10 11 12 12 13 13 14 15 15 16 16 17 17 19 21 22 23 24 24 25 26 26 27 28 29 31 31 29 28 28 27 25 23 20 16 12 10 9 8 9 10 11 11 11 12 12 10 9 8 8 10 10 11 10 9 9 10 10 10 10 9 8 8 9 8 8
24 24 24 24 23 21 19 17 15 12 10 10 10 9 9 9 10 10 10 10 11 12 13 13 13 14 15 15 15 16 17 18 20 20 21 21 23 24 25 26 26 27 27 29 31 31 29 28 29 29 26 23 22 21 19 15 12 10 9 8 10 11 12 13 13 11 10 9 9 10 11 10 8 8 8 8 8 9 10 9 8 8 8 8 7
23 23 23 22 20 17 15 14 11 8 8 9 9 9 8 9 10 10 11 11 11 13 13 14 14 14 15 15 15 17 17 18 18 18 19 20 23 25 25 25 25 26 26 27 29 31 28 28 29 29 27 24 21 21 21 21 18 15 12 10 9 9 10 11 12 12 11 10 10 10 9 9 8 7 6 7 8 8 9 9 9 9 8 8 7
23 23 21 19 16 14 12 9 7 7 8 9 9 9 9 10 11 11 11 11 12 13 14 15 15 15 15 15 16 16 16 16 16 16 18 20 23 25 25 25 24 25 25 25 27 29 27 27 29 29 29 26 21 18 19 20 21 19 15 12 9 9 9 10 11 12 12 12 11 10 10 9 10 8 7 7 8 8 8 9 9 9 9 9 8
22 20 17 14 11 9 7 6 7 8 9 9 9 9 10 10 11 11 11 11 12 14 15 16 16 16 16 15 15 14 14 13 13 15 18 22 24 25 25 24 23 24 24 24 26 28 26 27 28 29 30 28 23 18 16 17 18 18 18 16 13 11 10 10 10 11 13 14 15 14 12 12 11 10 9 9 9 9 9 10 10 9 9 10 9
18 15 11 9 7 6 5 6 7 8 9 9 10 10 10 11 11 11 11 12 13 14 15 15 15 15 15 14 13 12 11 11 12 15 19 23 25 25 25 24 23 23 24 24 26 27 25 25 28 29 31 31 26 20 16 14 15 16 17 17 16 16 15 14 13 12 12 13 14 14 14 15 14 12 10 10 10 11 11 10 10 10 9 10 10
13 9 7 6 5 5 5 6 7 9 10 10 11 11 11 10 10 11 12 13 14 14 14 14 14 14 14 13 11 10 9 10 12 16 20 23 24 23 23 23 23 22 23 24 26 26 24 24 27 29 31 32 29 24 18 14 13 14 15 16 17 17 17 17 17 16 15 14 13 12 11 13 15 16 15 13 12 12 12 12 10 9 10 10 11
8 6 6 5 4 4 5 6 7 9 10 11 12 11 11 10 10 12 13 14 14 14 14 13 13 12 12 10 9 8 8 10 13 17 19 21 21 22 22 22 22 21 22 23 25 26 24 23 25 28 30 31 31 28 22 17 14 13 14 15 16 17 18 18 17 17 17 17 16 14 13 11 10 12 15 17 16 15 14 14 12 10 11 12 12
6 5 4 4 4 4 5 5 8 11 12 12 12 11 11 10 11 12 13 14 14 14 13 13 12 11 10 9 8 8 8 10 13 15 17 19 20 21 21 22 21 21 21 22 24 24 23 23 23 25 28 30 31 31 27 22 17 15 15 15 16 17 18 18 18 19 19 19 18 17 16 15 14 12 10 12 15 17 18 17 15 13 13 14 14
5 4 3 3 4 4 4 6 10 13 13 13 12 11 11 11 11 12 12 13 13 12 12 11 11 10 9 8 8 8 9 10 12 14 16 18 20 20 21 22 22 22 21 22 23 23 23 23 23 24 26 28 30 31 30 27 23 19 18 17 17 17 18 18 18 19 20 20 20 19 19 18 18 17 16 14 11 12 16 20 20 18 16 16 16
4 3 3 3 3 3 5 10 13 14 14 13 12 11 11 11 11 12 12 12 12 11 11 10 10 10 10 9 9 9 10 11 13 15 16 18 19 20 20 21 21 21 21 22 22 22 22 23 23 23 24 26 28 29 30 30 27 25 22 21 20 19 19 19 18 19 20 20 21 20 20 20 20 19 19 18 16 14 11 13 20 22 20 18 17
3 3 2 2 3 5 9 14 15 15 14 13 12 12 12 12 11 11 11 11 11 11 11 11 11 11 11 11 11 11 12 13 14 15 16 18 18 18 19 20 21 21 21 22 22 21 21 22 23 23 24 25 26 27 28 29 29 28 26 25 24 23 22 21 19 19 20 20 20 20 20 20 20 20 20 20 19 18 17 13 11 17 22 22 19
2 2 1 3 6 9 13 15 15 15 14 14 14 13 12 12 11 11 11 12 12 12 12 12 11 11 11 11 12 12 13 14 15 15 16 17 17 17 18 19 20 21 21 21 21 21 21 21 21 23 24 24 25 25 25 26 27 28 28 27 27 26 25 23 21 20 20 20 20 19 20 20 20 20 20 21 21 21 20 19 16 12 15 21 23
3 1 3 6 9 12 15 16 15 15 16 16 15 13 12 11 11 11 12 12 12 12 12 12 12 11 12 12 12 13 13 14 15 15 16 16 17 17 19 20 21 21 20 20 21 21 20 19 20 21 22 23 24 24 25 25 25 26 28 28 28 27 26 26 24 21 19 19 19 19 19 20 20 21 21 20 20 21 21 21 20 18 13 13 20
4 3 6 10 12 14 16 16 16 17 17 16 15 13 12 12 12 12 12 12 11 11 11 12 12 12 12 13 13 13 14 14 14 15 16 16 17 18 20 21 22 22 21 20 21 22 21 20 20 19 20 21 22 24 25 25 25 24 25 27 27 27 27 27 27 25 21 19 19 18 18 19 20 20 21 20 20 21 21 21 21 20 18 15 13
5 6 10 12 14 15 16 17 18 18 17 16 14 13 13 12 12 11 11 10 10 10 11 11 11 12 12 13 13 13 14 14 14 15 15 16 18 19 20 21 23 22 20 19 21 22 23 22 22 20 19 19 20 22 23 24 24 24 23 24 25 25 26 26 26 26 24 22 21 20 19 18 18 19 20 20 20 20 21 21 21 20 20 19 16
8 10 13 14 15 16 17 18 19 18 17 15 14 13 13 12 11 10 10 10 10 10 11 11 12 12 13 14 14 13 13 13 13 14 15 16 18 20 21 22 22 22 20 18 19 21 23 23 23 22 20 19 19 19 21 22 23 23 23 23 23 23 24 25 25 24 24 23 23 22 21 19 18 18 19 19 20 20 20 21 21 21 21 21 19
11 14 15 16 16 16 18 19 19 18 16 15 14 13 12 11 10 10 10 9 10 10 11 12 13 14 14 15 15 14 14 14 14 14 16 18 20 21 22 23 22 22 21 19 19 21 23 23 23 22 21 20 19 18 19 20 22 23 23 23 23 23 23 23 23 23 22 21 21 21 21 20 19 18 19 20 20 20 21 21 22 22 22 22 21
15 16 16 16 16 17 19 19 18 17 16 14 14 12 11 10 9 9 9 9 10 10 11 12 14 15 15 15 15 15 15 15 16 16 18 19 20 22 22 23 22 21 20 19 19 20 21 22 23 22 21 20 19 18 18 19 20 22 23 23 22 23 23 22 22 22 22 22 21 21 21 20 19 19 20 21 22 22 22 23 23 23 23 22 22
18 17 17 17 17 18 19 19 18 16 15 14 13 11 10 9 9 9 9 10 10 11 12 13 14 15 15 15 16 16 16 17 18 19 19 19 20 21 22 22 22 21 20 19 19 20 20 21 21 22 21 20 19 18 18 18 19 20 21 22 22 22 23 23 22 22 22 22 22 22 21 21 21 21 20 20 21 22 23 24 24 24 24 22 22
19 18 18 18 18 19 20 18 16 14 14 14 12 11 9 9 8 9 9 10 10 11 11 13 13 14 14 15 16 17 17 18 19 20 19 19 20 21 22 22 22 22 22 22 22 22 22 21 20 20 20 20 19 18 18 18 18 19 19 20 21 21 22 23 23 22 22 22 23 24 23 23 22 23 22 22 22 22 23 23 23 24 25 24 22
19 18 18 18 19 20 19 17 15 14 14 13 12 10 9 8 8 9 9 10 10 10 11 12 12 13 13 14 16 17 18 19 20 19 19 19 20 21 22 23 23 24 24 25 25 25 25 23 21 19 18 18 18 18 18 18 18 18 19 19 20 21 22 23 24 24 23 23 23 25 26 25 24 24 24 23 22 23 23 23 23 23 24 25 24
19 18 18 18 19 19 17 15 15 15 14 13 11 10 9 8 8 9 9 9 9 9 10 10 11 11 12 14 15 17 18 19 19 19 19 19 20 21 22 24 25 25 26 27 27 27 27 26 24 21 19 18 18 18 19 19 20 19 19 19 21 22 22 23 24 25 25 24 24 25 27 27 26 25 24 24 23 22 23 24 24 24 24 24 25
19 18 18 19 19 17 16 15 16 15 14 12 11 9 8 8 8 8 8 8 9 9 9 10 10 11 12 13 15 16 17 18 18 18 19 20 20 21 22 24 25 26 26 27 28 28 28 27 27 25 23 21 20 19 19 20 21 22 21 20 21 22 23 23 24 25 25 25 25 24 25 27 27 27 26 25 24 22 22 22 23 24 25 24 24
19 19 19 19 17 16 15 16 16 15 13 12 10 9 8 7 7 7 7 8 8 9 9 10 10 11 12 14 15 16 17 17 18 19 20 20 20 22 23 25 25 26 26 27 28 28 28 28 27 26 25 24 22 21 21 22 23 24 23 22 23 23 24 24 25 25 25 25 25 25 25 26 28 29 28 27 26 24 22 22 22 23 24 25 24
19 20 19 17 16 15 16 16 15 14 12 10 8 7 6 6 6 6 7 8 8 9 9 9 10 11 12 14 15 16 16 17 18 19 20 20 22 23 24 25 25 25 26 27 27 28 28 28 28 27 27 26 24 22 22 23 24 25 25 24 24 25 25 26 26 26 26 26 27 27 26 26 27 29 30 29 28 26 25 23 22 23 23 24 25
20 20 18 17 15 15 16 15 14 13 11 9 7 6 5 5 5 6 7 7 8 9 9 10 11 12 13 14 15 15 16 17 18 19 19 21 22 23 24 25 25 25 26 27 27 28 28 28 28 28 28 28 27 25 24 24 25 26 26 26 26 27 27 27 27 27 27 28 29 29 29 29 29 29 31 31 30 28 26 25 24 23 24 24 24
20 20 18 16 15 15 15 14 14 12 10 8 6 4 3 3 4 5 6 7 8 9 10 10 11 12 14 14 15 15 15 17 18 18 19 21 22 23 24 24 25 26 27 27 28 28 29 29 29 29 29 29 29 28 28 27 26 26 26 27 27 27 28 28 28 28 28 28 29 31 31 32 32 32 32 33 32 30 28 26 25 24 24 25 25
20 19 18 16 15 15 15 14 13 12 10 8 6 4 2 2 4 5 7 8 8 9 10 11 12 13 14 14 14 14 15 16 17 18 20 21 22 23 24 25 26 27 27 28 29 29 29 29 29 30 30 30 30 30 30 30 29 29 28 28 28 29 29 29 29 29 28 29 29 30 32 33 33 33 33 34 34 33 31 28 26 24 24 26 27
19 18 17 15 13 12 12 12 11 11 9 7 6 3 1 2 4 6 7 8 9 10 10 11 12 13 14 14 14 14 15 16 17 18 20 21 22 24 24 25 26 27 28 29 29 29 29 29 30 30 31 31 32 32 31 31 31 31 31 31 31 30 30 29 29 29 29 30 30 31 32 33 34 34 33 34 34 34 33 31 28 25 24 25 26
16 16 15 12 10 9 9 9 9 9 8 6 5 3 1 2 4 6 8 9 9 10 11 12 13 14 14 14 14 15 16 16 17 19 20 21 22 23 25 26 27 28 29 29 30 30 30 30 30 31 31 32 32 32 32 32 32 32 33 32 32 32 31 30 30 30 30 31 32 32 33 33 34 34 33 33 33 32 31 31 30 28 26 25 25
14 15 14 12 10 8 8 8 9 9 8 7 5 3 2 2 4 5 7 9 9 10 11 12 13 14 15 14 15 16 16 17 17 18 20 21 22 23 24 25 27 28 29 29 29 30 30 30 31 31 31 32 32 32 33 33 33 33 33 33 33 32 32 31 30 30 31 31 33 34 34 34 34 34 33 32 30 30 30 30 31 31 30 28 27
14 15 15 13 11 9 8 9 10 10 9 8 6 5 4 4 4 5 6 8 9 10 11 12 13 14 14 14 14 16 17 17 17 18 19 20 21 22 24 25 26 27 28 29 29 30 30 31 31 31 31 31 32 32 33 33 33 33 33 33 33 32 32 31 31 31 31 32 33 34 35 36 36 36 34 30 28 28 29 30 31 32 32 31 30
16 16 16 14 12 12 11 11 12 12 11 10 8 7 6 6 5 5 6 7 8 9 10 12 13 14 14 13 14 16 17 17 18 18 19 20 21 22 23 25 26 26 27 28 29 30 30 31 31 31 31 32 32 33 33 33 34 33 33 33 33 33 32 32 32 32 33 33 33 34 36 37 37 37 34 28 27 28 30 31 32 32 32 32 31
18 18 17 16 15 15 14 14 14 14 12 12 11 10 9 8 8 7 7 7 8 8 10 11 13 13 13 13 14 16 17 17 18 19 19 21 21 22 24 25 25 26 27 28 29 29 30 31 31 32 32 33 33 33 34 34 34 34 33 33 33 32 32 32 33 33 34 34 34 35 36 37 38 38 36 31 28 30 31 32 33 33 33 32 32
Wind_Direction
315 317 318 318 317 315 310 304 299 293 288 283 278 274 275 277 281 287 297 308 315 316 315 314 313 313 317 321 324 324 324 325 328 330 334 341 344 349 360 17 64 51 35 24 16 22 33 41 51 63 63 45 22 14 19 27 34 34 31 31 29 29 31 34 40 43 43 42 40 38 37 36 35 33 29 24 18 11 3 351 345 349 355 1 1
313 316 317 317 318 318 314 309 305 300 297 293 289 283 280 282 288 299 309 316 318 317 315 315 316 318 321 324 324 323 326 329 331 332 338 345 349 359 12 36 81 61 38 27 17 20 33 39 43 54 50 25 6 2 7 14 21 25 24 23 22 21 22 25 35 41 42 42 41 39 36 34 33 33 31 28 24 19 15 5 354 350 357 4 6
313 315 317 319 320 320 316 311 307 304 302 299 297 295 292 295 302 310 316 318 317 316 316 317 318 321 323 324 325 328 332 333 332 336 342 348 357 10 21 45 80 74 41 20 13 19 31 36 37 39 32 7 351 349 356 6 8 13 15 16 15 10 12 19 30 36 39 40 40 40 38 35 32 31 29 27 23 20 17 11 2 353 355 1 7
313 315 317 321 321 319 315 311 311 309 306 304 304 306 306 307 310 315 317 318 318 318 319 318 319 322 325 326 330 335 336 335 337 344 351 0 11 19 29 45 60 67 30 4 3 16 31 34 33 32 27 7 348 345 353 1 1 3 7 5 3 357 360 10 18 25 32 37 38 39 37 37 33 30 27 25 21 18 16 12 7 358 356 356 4
314 316 317 320 320 318 316 314 315 313 310 308 310 313 313 314 316 319 320 320 320 320 320 319 321 324 328 333 338 340 339 340 349 1 12 17 21 27 34 42 43 38 13 358 351 358 30 31 24 23 23 16 351 355 12 11 3 353 353 349 345 342 344 355 4 10 18 27 32 34 33 33 33 29 26 24 20 17 15 12 8 3 355 353 359
314 315 316 318 320 319 318 316 316 315 314 314 316 318 318 318 320 322 323 322 321 320 320 321 324 329 336 341 344 344 345 353 8 21 25 25 28 31 34 36 33 23 8 358 346 331 5 21 12 8 15 15 334 351 25 31 13 355 346 335 325 322 324 334 347 354 1 12 23 28 29 29 28 26 24 21 19 17 17 15 12 6 358 353 358
312 313 314 316 319 319 320 319 316 316 317 318 318 319 319 320 321 322 322 320 320 321 322 325 331 338 344 348 351 351 356 9 24 31 31 30 30 32 32 29 22 13 6 1 357 339 310 354 357 354 5 354 312 335 17 37 24 16 357 320 311 308 306 312 325 336 346 358 8 18 25 24 23 22 20 18 16 16 17 19 17 13 4 357 358
310 312 313 316 318 320 323 322 318 317 318 320 320 321 322 320 320 320 319 320 321 323 327 334 342 347 352 356 358 1 10 23 32 34 33 32 32 32 30 25 18 11 8 6 8 5 297 310 331 338 341 316 306 322 2 50 41 54 17 301 305 304 301 304 309 317 332 348 353 6 16 15 15 14 14 15 14 14 16 20 21 19 13 3 2
308 311 313 315 319 322 326 326 323 320 320 320 321 322 322 320 319 319 320 322 325 331 338 345 351 356 1 4 6 15 25 32 36 36 35 33 32 31 28 24 17 11 7 4 5 3 337 314 318 324 318 303 299 307 328 61 68 112 273 298 310 311 306 301 299 303 319 333 340 349 359 4 6 4 6 11 14 15 16 20 22 20 18 11 6
306 310 312 315 320 325 329 330 327 324 322 320 321 321 320 320 321 323 326 329 335 342 348 354 2 7 9 13 21 31 36 40 40 39 37 35 34 31 29 23 18 13 8 3 0 357 345 329 319 315 309 299 292 294 300 336 105 276 303 310 318 319 313 306 302 298 302 311 323 335 342 352 355 353 356 6 11 13 15 17 20 20 19 17 12
305 308 311 315 322 327 331 331 330 327 325 325 324 323 322 324 326 330 335 340 345 350 357 7 14 15 20 30 36 41 47 50 49 47 45 43 41 39 37 35 32 29 25 21 15 7 354 340 326 314 305 297 289 287 284 279 272 282 294 297 308 315 315 313 312 306 295 292 299 315 323 335 344 342 345 354 0 7 11 11 14 19 18 19 20
305 308 310 316 323 328 330 331 330 329 328 328 327 328 329 331 334 339 345 350 353 0 13 23 25 28 36 41 43 50 57 58 56 54 52 50 49 49 48 44 39 36 34 31 26 21 13 3 351 337 322 306 289 278 270 271 281 285 281 284 292 296 308 319 320 312 292 283 292 303 315 320 328 333 334 339 346 355 4 7 7 13 15 18 24
304 306 310 317 323 326 328 329 329 327 327 328 330 332 334 339 345 351 355 358 5 18 29 34 35 40 43 43 49 60 64 62 59 57 56 55 55 54 48 41 38 37 35 32 29 24 19 13 6 359 350 338 312 286 274 277 286 287 276 275 283 289 304 326 330 321 297 289 304 311 315 318 322 326 327 328 333 341 355 3 1 6 13 14 22
304 307 312 318 322 324 325 325 325 325 326 328 331 336 344 352 357 0 4 10 22 34 41 43 43 42 41 45 57 66 67 63 59 58 57 56 54 49 43 41 40 38 35 32 30 26 22 19 13 8 2 356 341 307 282 276 280 282 279 277 285 296 307 327 335 329 314 305 316 319 318 318 318 318 318 321 325 329 342 354 356 359 8 12 16
305 310 315 318 321 323 324 323 323 324 326 330 337 347 359 3 3 11 18 28 40 44 45 47 45 40 41 51 64 68 67 62 57 57 57 55 52 47 44 42 39 36 33 30 28 26 24 22 21 19 14 8 0 337 299 286 281 277 279 284 289 296 308 326 333 330 321 312 315 322 324 322 316 312 312 317 321 323 330 342 349 350 358 9 12
309 313 317 320 322 323 323 323 323 325 330 337 350 5 9 9 14 25 36 46 48 45 46 48 44 41 46 59 68 68 64 59 57 59 59 57 52 47 43 38 35 33 31 29 27 25 23 22 23 23 23 19 16 11 349 327 306 285 276 281 288 296 309 320 324 326 325 319 315 320 325 325 317 310 309 313 318 318 319 326 337 341 345 358 6
312 317 321 322 323 322 323 324 325 330 339 354 11 18 17 20 28 42 53 53 48 46 50 49 46 48 56 64 69 67 62 61 63 65 62 57 49 42 36 33 32 30 29 28 27 25 23 23 24 23 25 25 26 26 23 14 355 326 297 283 284 294 305 310 311 315 321 324 322 320 322 323 321 318 315 313 315 315 314 313 318 324 329 340 355
317 321 322 322 322 323 325 327 331 340 357 15 24 25 28 36 47 58 59 53 51 53 54 55 55 58 63 67 67 65 65 68 70 66 59 51 42 35 32 30 30 29 28 28 26 25 24 25 25 25 26 28 32 34 35 31 22 8 350 323 300 293 295 298 300 302 307 315 318 318 319 321 323 326 327 323 319 313 310 308 304 303 306 315 332
321 321 320 319 320 324 328 334 344 2 20 28 31 37 44 53 61 64 59 55 56 58 61 63 63 65 66 66 66 69 72 73 69 60 50 41 32 28 27 27 27 27 27 28 27 26 26 26 24 25 28 31 35 39 42 41 36 27 15 360 337 311 299 296 295 297 298 303 306 306 307 309 309 311 319 327 325 313 305 301 297 292 290 292 299
322 320 317 317 322 328 335 348 13 29 35 38 43 53 61 67 69 65 60 58 60 65 68 68 66 66 66 67 72 77 77 71 60 48 37 27 21 19 20 22 24 25 26 29 29 28 29 28 25 25 28 31 36 40 44 46 44 39 34 25 6 339 322 313 306 302 299 300 299 296 296 295 292 290 293 309 317 311 302 297 293 285 276 278 281
320 318 319 323 332 341 356 22 36 39 43 50 60 70 75 74 71 66 63 64 69 73 74 71 68 66 66 70 78 80 76 65 48 32 22 15 11 10 12 16 21 24 26 28 30 30 32 31 29 28 28 31 34 38 43 45 44 43 43 41 33 19 3 346 330 318 308 302 297 293 290 289 291 291 289 294 299 300 300 296 295 288 270 263 267
319 322 331 342 358 15 33 38 39 46 56 67 78 83 82 77 72 70 70 72 75 76 75 72 67 64 64 69 75 76 69 50 30 17 11 7 5 4 7 12 18 22 25 29 30 30 33 34 32 32 30 31 33 35 41 44 42 40 40 41 41 40 35 27 16 3 349 334 319 306 294 288 287 287 286 286 285 286 291 296 297 296 277 258 258
322 336 357 15 31 38 38 38 45 59 72 85 92 90 85 78 75 76 78 78 77 76 72 68 64 62 62 65 68 64 52 30 16 9 5 2 1 3 7 13 19 24 27 29 29 29 33 36 35 34 33 32 32 33 37 40 38 33 31 32 33 35 36 34 32 29 24 18 7 351 328 306 292 285 280 277 279 278 280 285 290 293 286 267 259
335 358 17 30 34 33 35 41 58 77 89 97 98 93 86 80 79 82 83 80 78 75 70 64 60 60 61 63 59 48 30 16 8 3 1 0 3 8 12 17 22 28 30 30 28 28 32 36 37 35 35 35 33 33 34 36 34 28 23 20 19 19 21 24 24 25 26 26 25 22 15 359 331 306 289 278 274 272 275 279 277 274 276 272 266
345 4 16 21 21 29 37 54 80 94 101 105 102 95 87 84 86 86 84 80 76 72 69 64 61 59 59 57 49 36 20 10 4 2 4 8 13 17 20 23 27 29 31 30 29 30 32 35 36 34 34 35 35 34 34 34 31 26 20 15 12 11 11 13 15 16 17 19 21 23 24 22 18 8 344 310 284 271 269 272 274 268 263 265 266
340 352 359 8 23 34 49 86 101 106 109 109 103 95 90 90 88 84 80 74 70 67 65 62 60 58 56 51 41 27 17 11 10 12 16 19 21 23 25 27 28 29 30 29 30 32 34 35 35 33 33 34 35 35 35 35 33 27 21 16 13 11 10 10 12 13 13 15 18 19 21 22 22 22 20 12 348 302 273 265 267 268 265 260 259
331 333 345 17 39 58 95 109 112 115 114 111 104 98 95 94 88 80 74 68 64 62 60 59 57 54 52 48 40 32 28 25 25 25 24 24 25 25 25 26 28 28 27 27 29 33 36 37 37 35 33 34 35 34 35 35 35 32 27 22 18 16 14 13 13 13 13 14 16 17 19 22 22 21 19 18 15 3 329 283 266 263 264 262 258
321 312 351 49 84 108 117 117 119 120 116 112 106 102 101 96 86 76 69 65 63 63 62 61 59 56 53 49 44 40 37 35 31 28 26 27 27 25 25 26 27 25 23 25 27 31 35 37 37 38 37 36 36 35 35 35 35 35 33 30 26 23 19 17 16 15 14 15 16 17 19 22 22 21 18 15 13 11 6 351 304 271 262 261 261
292 293 55 106 123 124 122 122 124 121 116 113 109 107 104 96 85 77 72 70 69 67 65 63 60 56 52 48 43 40 37 33 30 28 28 30 27 25 24 24 23 20 21 25 27 30 32 35 36 38 39 39 39 38 36 35 34 34 34 33 31 28 25 21 19 17 16 16 17 18 19 21 21 21 20 16 13 11 9 7 1 331 283 265 260
250 201 125 137 134 128 125 126 124 120 116 114 113 110 103 93 85 81 79 77 74 69 65 61 57 52 48 44 40 37 34 32 31 31 31 30 26 23 21 20 19 19 22 26 29 31 30 30 31 33 35 37 39 39 38 36 34 32 30 31 31 30 28 26 23 21 19 17 19 19 18 19 20 20 21 18 13 11 11 11 8 4 347 298 268
208 151 148 148 135 128 126 126 123 120 118 116 114 109 100 92 88 85 82 79 75 69 64 59 53 47 42 39 35 34 33 33 33 33 33 29 24 22 19 17 16 18 22 26 29 29 28 26 25 26 27 29 32 34 36 35 34 32 29 28 29 29 27 27 26 26 24 21 19 17 17 18 18 18 19 19 15 10 11 12 10 9 7 351 308
178 158 159 148 134 130 127 126 124 122 120 116 112 106 99 96 92 88 83 77 71 65 60 55 51 45 40 37 35 35 34 34 33 33 31 26 23 21 19 17 16 16 18 22 23 23 23 22 21 19 18 19 22 25 29 31 32 31 28 27 27 26 25 25 27 28 28 26 24 21 19 19 17 16 16 16 15 12 10 10 10 8 6 2 352
165 165 160 144 135 133 130 128 126 124 119 114 109 105 102 99 95 90 82 75 68 61 56 52 48 43 38 36 36 37 39 37 35 32 28 24 23 23 21 19 19 19 18 16 15 14 15 15 16 14 12 12 13 15 19 23 25 25 25 24 23 23 22 23 24 26 27 27 26 27 27 26 21 17 16 15 14 13 11 9 8 7 6 4 1
166 166 153 141 138 136 134 131 128 125 119 114 111 107 104 99 93 87 78 70 62 57 52 47 43 39 37 36 36 38 38 36 34 31 27 26 26 25 25 25 26 25 23 19 15 12 11 11 11 11 10 9 7 8 10 13 17 18 19 19 19 18 17 19 20 22 23 24 24 26 28 29 29 27 26 23 21 19 16 11 7 5 5 5 3
166 163 149 142 141 139 137 133 130 126 119 115 113 109 104 96 87 78 71 63 56 51 46 41 38 36 34 34 34 34 33 31 30 29 29 29 29 29 29 29 30 29 27 23 17 12 10 9 9 10 10 9 7 4 3 5 8 11 12 13 13 13 11 11 14 16 18 18 18 19 21 23 25 27 29 28 27 26 24 21 15 9 4 4 2
164 157 148 145 143 142 139 135 132 127 121 118 115 110 103 93 81 70 62 55 49 45 40 36 34 32 31 31 31 30 29 28 28 30 30 30 30 31 31 31 30 30 27 23 17 13 11 11 11 13 12 12 10 5 0 358 359 2 4 5 6 7 6 4 5 8 11 13 12 13 13 14 15 16 19 21 22 23 24 24 21 17 12 7 3
161 154 149 147 146 144 140 136 134 129 124 121 116 109 100 89 77 66 57 49 43 39 36 34 31 28 27 28 28 27 28 28 28 30 30 29 29 30 30 30 30 29 28 25 21 17 14 13 14 14 14 13 13 10 4 358 355 354 355 357 357 360 1 360 360 360 2 5 7 7 7 7 8 8 8 8 11 15 18 18 17 16 14 13 10
159 153 151 150 148 145 141 138 134 130 126 120 114 107 96 83 71 60 53 45 39 36 34 32 29 25 25 26 26 26 27 27 28 29 28 27 27 27 27 26 28 29 29 28 26 22 18 14 12 10 8 10 12 12 9 3 357 352 350 349 350 353 355 355 355 356 356 357 359 1 2 1 0 359 359 359 0 4 8 10 9 9 8 9 10
158 154 152 151 148 145 142 139 135 132 127 120 114 106 94 79 64 54 48 41 36 33 32 29 26 23 23 23 25 26 27 27 26 26 24 25 25 24 24 24 26 27 28 27 26 24 21 17 13 7 1 359 3 6 6 4 359 355 350 347 348 350 350 350 350 352 353 354 353 354 356 356 354 351 350 351 352 354 356 359 0 2 2 1 2
158 154 152 150 148 146 144 141 138 134 128 122 115 106 95 79 62 50 41 36 31 28 24 23 22 20 19 21 24 26 27 25 22 21 21 22 21 19 20 22 23 25 25 25 24 22 21 19 17 13 7 359 355 355 356 358 358 355 352 349 349 350 350 348 346 347 349 350 351 351 352 352 350 347 345 345 346 346 347 348 351 354 357 358 357
159 155 152 150 148 147 146 144 142 138 133 126 117 107 95 79 64 46 36 31 26 21 17 16 16 15 16 19 24 25 25 22 18 18 18 18 17 16 17 18 19 20 21 22 21 20 19 18 17 16 14 10 2 354 351 352 353 353 352 349 348 349 349 347 344 344 346 347 348 349 350 350 349 346 343 342 341 340 339 338 341 345 350 354 354
161 155 152 151 149 150 149 148 146 143 139 131 121 110 95 77 61 44 32 26 23 17 11 10 10 11 14 18 22 22 20 18 17 17 16 15 14 13 14 14 15 15 16 18 18 18 18 17 16 15 15 14 11 4 355 351 351 351 351 349 347 346 345 343 342 343 346 348 348 348 347 346 346 345 342 341 340 338 335 331 330 334 340 346 349
162 158 154 153 151 153 154 154 153 150 148 141 129 114 95 75 55 39 28 22 18 14 8 5 7 8 11 15 17 17 15 14 16 15 12 11 11 11 11 11 11 11 12 13 14 15 15 14 14 14 13 13 13 10 4 358 354 352 350 348 346 344 342 341 340 341 344 347 349 349 348 344 342 342 340 339 338 336 333 329 324 324 327 332 338
165 162 159 157 157 159 161 161 162 160 158 154 144 127 102 69 45 29 22 17 12 10 8 5 5 5 8 11 12 11 9 10 12 10 8 8 8 8 8 8 8 8 9 10 11 11 11 11 10 11 11 11 11 10 7 4 360 356 353 350 347 345 343 341 340 340 341 344 347 348 348 346 343 341 338 337 335 334 332 329 324 320 319 322 327
172 170 168 165 165 166 167 168 169 169 168 167 161 147 117 50 23 16 12 11 7 5 5 3 2 2 4 6 6 4 3 5 6 5 5 6 6 5 5 5 5 5 6 6 7 7 7 7 6 7 8 8 8 7 6 4 1 359 356 353 351 349 346 343 341 340 341 342 343 344 345 345 344 341 339 336 334 332 331 329 325 319 314 315 320
181 180 177 174 172 171 172 174 176 178 178 177 173 168 140 11 5 3 2 3 2 1 0 359 358 358 0 2 0 356 356 0 1 1 2 3 3 3 3 3 3 3 3 3 3 3 3 3 3 3 4 4 4 4 3 2 0 359 357 355 354 352 349 345 342 340 340 341 342 343 343 342 341 340 338 336 334 332 331 331 329 323 315 311 314
187 188 186 182 179 177 180 185 190 192 194 192 188 191 225 342 350 352 356 357 357 356 356 356 355 353 355 357 353 349 351 355 357 358 359 0 1 2 2 1 0 1 1 1 0 360 360 360 0 1 1 2 1 1 0 359 359 358 356 355 353 352 349 346 343 340 339 340 340 341 341 340 338 336 335 334 334 334 334 334 332 329 324 315 312
190 191 189 189 189 190 192 199 205 209 209 210 212 221 247 302 331 343 348 350 351 351 352 352 353 351 351 352 347 343 346 350 353 354 355 357 358 359 360 359 359 359 359 359 359 358 357 358 359 359 360 359 358 358 358 357 357 356 355 354 352 350 349 346 343 341 340 339 339 339 339 339 337 334 332 332 335 338 338 338 336 333 329 323 316
192 192 191 194 198 203 209 213 215 218 219 220 227 238 256 279 303 325 334 340 342 343 346 347 349 350 349 348 343 337 340 345 346 348 350 352 353 355 356 356 356 357 357 357 357 357 356 356 357 357 357 356 356 355 355 355 354 354 354 353 352 350 348 346 343 342 341 340 338 337 337 337 336 335 334 333 336 340 340 340 339 336 333 329 323
196 196 196 200 204 208 214 218 218 220 223 226 232 241 251 263 278 297 312 323 329 334 339 341 344 347 347 344 338 332 333 338 340 341 343 345 347 350 351 352 353 354 355 355 356 355 355 355 355 355 355 354 353 353 353 352 351 351 352 352 352 351 349 346 343 341 341 340 338 336 336 336 336 336 335 332 333 337 340 341 340 338 336 334 329
201 203 206 209 211 211 212 214 217 219 223 227 232 239 248 256 263 273 286 299 311 323 331 333 337 342 344 340 333 327 328 332 335 335 336 339 342 344 345 347 349 351 352 353 354 354 353 353 353 353 353 352 352 351 350 349 348 348 350 351 352 351 350 348 344 342 341 340 338 336 336 336 336 336 335 331 327 330 335 339 340 338 336 335 333
Height
10999 10998 10997 10995 10995 10994 10992 10991 10990 10989 10988 10987 10986 10985 10984 10983 10982 10981 10980 10978 10976 10975 10973 10971 10969 10967 10965 10962 10960 10957 10955 10952 10950 10947 10946 10944 10943 10942 10942 10941 10941 10941 10940 10940 10939 10938 10937 10937 10936 10936 10936 10936 10935 10934 10933 10932 10931 10930 10929 10929 10928 10927 10926 10926 10925 10925 10924 10923 10923 10922 10921 10921 10920 10919 10918 10918 10917 10916 10916 10915 10914 10914 10913 10913 10912
10997 10996 10995 10993 10992 10991 10989 10988 10987 10986 10985 10984 10984 10983 10981 10980 10980 10979 10978 10977 10975 10973 10972 10970 10968 10965 10963 10961 10958 10956 10953 10951 10949 10947 10945 10944 10943 10942 10942 10942 10941 10941 10941 10940 10939 10938 10938 10937 10937 10937 10936 10936 10935 10934 10933 10932 10932 10931 10930 10929 10928 10928 10927 10926 10926 10925 10925 10924 10923 10923 10922 10921 10920 10920 10919 10918 10918 10917 10916 10915 10915 10914 10913 10913 10912
10995 10994 10993 10991 10990 10989 10987 10986 10985 10984 10983 10983 10982 10981 10980 10979 10979 10978 10976 10975 10974 10972 10970 10968 10966 10964 10962 10959 10957 10954 10952 10950 10947 10946 10944 10943 10942 10942 10942 10942 10942 10942 10941 10941 10940 10939 10938 10938 10937 10937 10937 10936 10935 10934 10933 10933 10932 10931 10930 10929 10929 10928 10927 10927 10926 10926 10925 10924 10924 10924 10923 10922 10921 10920 10920 10919 10918 10917 10916 10915 10915 10914 10914 10913 10913
10993 10992 10991 10990 10988 10987 10986 10984 10984 10983 10982 10981 10981 10980 10979 10978 10977 10976 10975 10974 10972 10970 10969 10966 10964 10962 10960 10958 10955 10953 10951 10948 10946 10944 10943 10942 10942 10942 10942 10942 10942 10942 10942 10941 10940 10940 10939 10938 10938 10938 10937 10936 10935 10934 10933 10932 10932 10931 10930 10929 10929 10928 10928 10927 10926 10926 10925 10925 10925 10924 10924 10923 10923 10921 10921 10920 10919 10918 10917 10916 10915 10915 10914 10914 10913
10991 10990 10989 10988 10987 10986 10985 10983 10982 10982 10981 10981 10980 10979 10978 10977 10976 10975 10974 10973 10971 10969 10967 10965 10963 10961 10959 10956 10954 10952 10950 10948 10945 10944 10942 10942 10942 10942 10942 10942 10942 10942 10942 10941 10941 10940 10940 10939 10939 10938 10938 10936 10933 10932 10932 10932 10932 10931 10930 10929 10929 10928 10928 10927 10927 10926 10926 10926 10925 10925 10925 10924 10923 10922 10922 10921 10920 10919 10918 10917 10916 10915 10915 10915 10914
10989 10988 10987 10986 10985 10984 10983 10982 10981 10981 10980 10980 10979 10978 10977 10976 10975 10974 10973 10971 10969 10968 10966 10964 10961 10960 10957 10955 10953 10951 10949 10947 10945 10943 10943 10943 10943 10943 10943 10942 10942 10942 10942 10942 10941 10940 10940 10939 10939 10939 10938 10936 10932 10930 10932 10933 10932 10931 10930 10929 10929 10928 10928 10927 10927 10926 10926 10926 10926 10925 10925 10925 10924 10923 10923 10922 10921 10920 10919 10918 10917 10916 10915 10915 10915
10988 10987 10986 10985 10984 10983 10982 10981 10980 10980 10979 10979 10978 10977 10976 10975 10974 10973 10972 10970 10968 10966 10964 10962 10960 10958 10956 10954 10953 10951 10948 10946 10945 10944 10944 10944 10944 10943 10943 10943 10942 10942 10942 10941 10941 10940 10940 10939 10939 10939 10938 10935 10930 10930 10932 10933 10933 10930 10928 10928 10928 10928 10928 10928 10927 10927 10926 10926 10926 10926 10925 10925 10925 10924 10923 10923 10922 10921 10919 10918 10918 10917 10916 10915 10915
10987 10986 10985 10984 10983 10982 10981 10980 10979 10979 10978 10978 10977 10976 10975 10974 10973 10972 10970 10969 10967 10965 10962 10961 10959 10957 10955 10954 10952 10950 10948 10946 10945 10945 10945 10944 10944 10943 10943 10943 10942 10942 10942 10941 10940 10940 10940 10939 10939 10939 10938 10934 10931 10931 10933 10933 10932 10930 10929 10928 10928 10928 10928 10928 10927 10927 10927 10926 10926 10926 10926 10925 10925 10925 10924 10923 10923 10922 10921 10919 10919 10917 10917 10916 10916
10985 10984 10984 10983 10982 10981 10980 10979 10978 10978 10977 10976 10975 10974 10973 10973 10972 10971 10969 10967 10965 10963 10961 10959 10958 10956 10955 10954 10952 10950 10948 10947 10946 10946 10945 10945 10944 10944 10943 10943 10942 10942 10941 10941 10940 10940 10939 10939 10938 10938 10937 10935 10932 10932 10933 10932 10931 10929 10929 10929 10929 10928 10928 10927 10927 10927 10927 10927 10927 10926 10926 10926 10926 10925 10925 10924 10924 10923 10922 10921 10920 10919 10917 10917 10916
10984 10983 10982 10981 10980 10979 10978 10977 10977 10976 10976 10975 10974 10973 10972 10971 10970 10969 10967 10965 10963 10962 10960 10959 10957 10956 10955 10954 10952 10950 10949 10948 10947 10947 10946 10945 10945 10944 10944 10943 10943 10942 10942 10941 10940 10939 10939 10938 10937 10937 10936 10935 10932 10932 10932 10931 10931 10930 10930 10930 10930 10929 10928 10927 10927 10927 10927 10927 10927 10927 10926 10926 10926 10925 10925 10925 10925 10924 10923 10922 10920 10919 10918 10918 10917
10982 10981 10980 10979 10978 10977 10977 10976 10976 10975 10974 10974 10973 10972 10971 10970 10968 10967 10965 10964 10962 10961 10960 10958 10958 10957 10955 10954 10952 10951 10950 10949 10949 10948 10947 10946 10946 10945 10944 10944 10943 10943 10942 10941 10940 10939 10938 10937 10936 10935 10935 10934 10932 10931 10931 10930 10930 10931 10930 10930 10930 10930 10929 10927 10927 10927 10926 10927 10926 10926 10926 10926 10926 10926 10925 10925 10925 10924 10923 10923 10921 10920 10919 10919 10918
10979 10979 10978 10978 10977 10976 10975 10975 10974 10974 10973 10972 10972 10971 10970 10968 10967 10965 10964 10963 10962 10960 10959 10959 10958 10957 10956 10955 10953 10952 10951 10951 10950 10949 10948 10947 10947 10946 10946 10945 10944 10943 10942 10941 10940 10938 10937 10936 10934 10933 10933 10932 10932 10931 10930 10930 10930 10930 10930 10930 10929 10929 10929 10928 10927 10927 10926 10926 10926 10926 10926 10926 10926 10926 10925 10925 10925 10925 10924 10923 10922 10921 10921 10920 10919
10978 10977 10977 10976 10975 10975 10974 10974 10973 10973 10972 10971 10971 10970 10969 10967 10965 10964 10963 10962 10961 10960 10960 10959 10959 10958 10957 10955 10954 10953 10953 10952 10951 10950 10949 10948 10948 10948 10947 10946 10945 10943 10942 10941 10939 10938 10937 10935 10934 10932 10931 10931 10930 10930 10930 10930 10930 10929 10929 10929 10929 10929 10928 10928 10927 10927 10927 10927 10927 10926 10926 10926 10926 10926 10926 10925 10925 10925 10924 10923 10923 10922 10921 10921 10920
10977 10976 10976 10975 10974 10973 10973 10973 10972 10971 10971 10970 10970 10969 10967 10966 10965 10964 10963 10962 10961 10961 10960 10960 10959 10959 10958 10956 10955 10955 10954 10954 10953 10951 10950 10950 10949 10949 10948 10947 10945 10944 10942 10941 10940 10938 10936 10935 10933 10932 10931 10930 10929 10929 10929 10929 10929 10929 10929 10928 10929 10928 10928 10928 10928 10927 10927 10927 10927 10927 10926 10926 10926 10925 10925 10925 10925 10925 10924 10924 10923 10923 10922 10921 10921
10976 10975 10974 10974 10973 10972 10972 10972 10971 10970 10970 10970 10969 10968 10967 10965 10964 10964 10963 10962 10962 10961 10961 10961 10960 10960 10958 10957 10957 10956 10955 10954 10953 10952 10952 10951 10951 10950 10949 10948 10947 10945 10944 10942 10940 10938 10936 10935 10933 10932 10930 10929 10929 10928 10928 10927 10927 10928 10928 10928 10928 10928 10927 10927 10927 10927 10927 10927 10926 10926 10926 10926 10925 10925 10925 10925 10925 10925 10925 10924 10924 10923 10923 10922 10921
10975 10974 10973 10972 10972 10971 10971 10970 10970 10969 10969 10969 10968 10967 10966 10965 10964 10964 10963 10963 10962 10962 10962 10962 10961 10960 10959 10958 10957 10957 10956 10955 10954 10953 10953 10952 10952 10952 10951 10949 10948 10946 10945 10943 10941 10939 10937 10935 10933 10932 10930 10929 10928 10928 10927 10926 10926 10926 10927 10927 10928 10927 10927 10927 10927 10927 10927 10927 10926 10926 10926 10925 10925 10925 10925 10925 10925 10925 10925 10924 10924 10924 10923 10923 10922
10973 10973 10972 10971 10970 10970 10970 10969 10969 10968 10968 10968 10968 10967 10966 10965 10964 10964 10964 10963 10963 10963 10963 10963 10962 10961 10960 10959 10958 10957 10957 10956 10955 10954 10954 10954 10953 10953 10952 10951 10949 10947 10946 10944 10942 10940 10938 10936 10934 10932 10931 10930 10928 10928 10927 10926 10926 10925 10926 10926 10927 10927 10926 10926 10926 10926 10926 10926 10926 10925 10925 10925 10925 10925 10924 10925 10925 10925 10925 10924 10924 10924 10923 10923 10923
10973 10972 10971 10970 10969 10969 10969 10968 10968 10968 10968 10968 10967 10966 10965 10965 10965 10965 10965 10964 10964 10964 10964 10963 10963 10962 10961 10960 10959 10958 10957 10957 10956 10955 10955 10955 10955 10954 10953 10952 10950 10949 10947 10945 10943 10941 10939 10937 10935 10933 10931 10930 10929 10928 10927 10927 10926 10925 10925 10926 10926 10926 10926 10926 10926 10926 10926 10926 10925 10925 10925 10925 10925 10925 10924 10924 10924 10924 10924 10923 10923 10923 10923 10923 10923
10971 10970 10970 10969 10968 10968 10968 10967 10967 10967 10967 10967 10966 10966 10965 10965 10966 10966 10966 10965 10965 10965 10965 10964 10964 10963 10962 10961 10960 10960 10959 10958 10957 10956 10956 10956 10956 10955 10954 10953 10951 10950 10949 10947 10945 10943 10941 10939 10937 10935 10933 10931 10930 10929 10928 10928 10927 10926 10926 10926 10926 10926 10925 10925 10925 10925 10925 10925 10925 10925 10925 10925 10924 10924 10924 10924 10923 10923 10923 10922 10922 10922 10922 10923 10923
10970 10969 10968 10968 10967 10967 10967 10967 10967 10967 10967 10967 10966 10966 10966 10966 10967 10967 10967 10966 10966 10966 10965 10965 10964 10964 10963 10962 10962 10961 10960 10959 10958 10958 10957 10957 10957 10956 10955 10954 10953 10952 10950 10949 10947 10945 10943 10941 10939 10936 10934 10932 10931 10931 10930 10929 10928 10928 10927 10927 10926 10925 10925 10925 10924 10924 10924 10924 10924 10924 10924 10924 10924 10924 10923 10923 10922 10922 10921 10921 10921 10922 10922 10922 10923
10969 10968 10968 10967 10967 10966 10966 10966 10967 10967 10967 10966 10966 10966 10967 10967 10968 10968 10968 10967 10967 10966 10966 10966 10965 10965 10964 10964 10963 10962 10961 10960 10959 10959 10959 10958 10957 10956 10956 10955 10954 10953 10952 10951 10949 10947 10945 10943 10941 10938 10936 10934 10933 10932 10931 10930 10930 10929 10929 10928 10927 10926 10925 10925 10924 10924 10923 10923 10923 10923 10923 10923 10923 10922 10922 10922 10922 10921 10921 10921 10921 10921 10921 10922 10922
10969 10968 10967 10966 10966 10966 10966 10966 10967 10967 10967 10967 10967 10967 10968 10968 10969 10969 10968 10968 10968 10967 10967 10967 10966 10966 10966 10965 10964 10964 10963 10962 10961 10960 10960 10959 10958 10957 10956 10955 10954 10953 10952 10951 10950 10949 10947 10945 10943 10941 10938 10936 10935 10933 10933 10932 10931 10931 10930 10929 10929 10928 10927 10926 10925 10924 10923 10922 10921 10921 10921 10921 10921 10921 10921 10921 10920 10920 10920 10920 10920 10921 10921 10921 10922
10968 10967 10967 10966 10966 10966 10966 10966 10967 10967 10967 10967 10968 10969 10969 10969 10969 10969 10969 10969 10969 10968 10968 10968 10967 10967 10967 10966 10966 10965 10964 10963 10962 10962 10961 10960 10959 10958 10956 10955 10955 10954 10953 10952 10951 10950 10949 10947 10945 10943 10941 10938 10937 10935 10934 10934 10933 10932 10931 10931 10930 10929 10928 10927 10926 10925 10924 10922 10921 10920 10920 10920 10919 10919 10920 10920 10919 10919 10920 10920 10920 10920 10920 10920 10921
10968 10967 10967 10966 10966 10966 10966 10967 10967 10967 10968 10968 10969 10970 10970 10970 10970 10970 10970 10970 10970 10969 10969 10969 10969 10968 10968 10968 10967 10966 10966 10965 10964 10963 10962 10961 10960 10958 10957 10956 10956 10955 10954 10953 10952 10951 10950 10948 10947 10945 10943 10941 10939 10938 10936 10935 10935 10934 10932 10931 10930 10930 10929 10928 10927 10926 10925 10923 10922 10921 10920 10919 10919 10918 10918 10918 10919 10919 10919 10919 10919 10918 10919 10919 10920
10969 10968 10967 10967 10966 10966 10967 10967 10968 10968 10969 10969 10970 10970 10971 10971 10971 10971 10971 10971 10971 10970 10970 10970 10970 10969 10969 10969 10968 10968 10967 10966 10965 10964 10963 10962 10960 10959 10958 10957 10956 10956 10955 10955 10954 10952 10951 10950 10948 10947 10945 10943 10942 10940 10938 10937 10936 10935 10934 10932 10931 10930 10929 10928 10927 10926 10925 10924 10923 10921 10920 10919 10919 10918 10918 10917 10917 10917 10917 10917 10917 10917 10917 10917 10918
10969 10968 10968 10967 10967 10967 10967 10968 10968 10969 10970 10970 10971 10971 10972 10972 10972 10972 10972 10972 10972 10971 10971 10971 10971 10970 10970 10969 10969 10969 10968 10967 10966 10965 10964 10963 10961 10960 10959 10958 10957 10956 10956 10956 10955 10954 10953 10951 10949 10948 10947 10945 10943 10942 10941 10939 10938 10937 10935 10934 10932 10931 10930 10929 10927 10927 10925 10924 10923 10922 10921 10920 10919 10918 10918 10917 10916 10915 10915 10915 10915 10915 10915 10916 10916
10969 10969 10969 10968 10967 10968 10968 10968 10969 10970 10971 10971 10972 10972 10972 10973 10973 10973 10973 10972 10972 10972 10972 10972 10972 10971 10971 10970 10970 10969 10969 10968 10967 10966 10965 10964 10962 10961 10960 10959 10958 10957 10957 10956 10955 10955 10954 10953 10951 10950 10948 10946 10945 10944 10943 10941 10940 10938 10937 10935 10934 10932 10931 10930 10928 10927 10926 10925 10924 10922 10921 10920 10919 10918 10917 10916 10915 10914 10913 10913 10913 10913 10913 10914 10915
10969 10969 10969 10968 10968 10968 10968 10969 10970 10970 10971 10972 10973 10973 10974 10974 10974 10974 10974 10973 10973 10973 10973 10973 10972 10972 10971 10971 10971 10970 10970 10969 10968 10967 10966 10964 10963 10962 10961 10960 10959 10958 10957 10957 10956 10955 10955 10954 10953 10952 10950 10948 10947 10946 10945 10943 10942 10940 10938 10937 10935 10933 10932 10931 10930 10929 10927 10926 10925 10923 10922 10921 10920 10919 10918 10917 10915 10914 10913 10912 10911 10911 10911 10912 10913
10969 10969 10968 10968 10968 10968 10968 10969 10970 10971 10972 10973 10973 10974 10975 10975 10975 10975 10974 10974 10974 10974 10974 10973 10973 10973 10972 10972 10972 10971 10970 10970 10969 10968 10967 10966 10965 10964 10962 10961 10960 10959 10958 10958 10957 10956 10955 10955 10954 10953 10952 10951 10950 10949 10947 10945 10943 10942 10940 10939 10937 10935 10933 10932 10931 10930 10929 10927 10926 10925 10923 10922 10921 10920 10919 10917 10916 10915 10913 10912 10911 10910 10910 10910 10910
10969 10969 10968 10969 10969 10969 10969 10970 10971 10972 10972 10973 10974 10975 10975 10976 10976 10976 10975 10975 10975 10975 10974 10974 10973 10973 10973 10972 10972 10971 10971 10970 10969 10969 10968 10967 10966 10964 10963 10961 10961 10960 10959 10958 10958 10957 10956 10956 10955 10954 10953 10952 10952 10951 10949 10947 10945 10943 10942 10940 10938 10937 10935 10934 10932 10931 10930 10929 10927 10926 10925 10923 10922 10921 10920 10918 10917 10915 10914 10913 10912 10910 10909 10909 10908
10969 10968 10969 10969 10969 10969 10970 10970 10971 10972 10973 10974 10975 10975 10976 10976 10976 10976 10976 10976 10976 10976 10975 10975 10974 10974 10973 10973 10972 10972 10971 10970 10970 10969 10968 10968 10967 10965 10964 10963 10961 10961 10960 10959 10959 10958 10957 10956 10955 10954 10953 10953 10952 10951 10950 10948 10946 10945 10944 10942 10940 10938 10937 10936 10934 10932 10931 10930 10929 10928 10926 10924 10923 10921 10920 10919 10918 10916 10915 10914 10913 10910 10909 10908 10907
10968 10968 10969 10969 10969 10970 10970 10971 10972 10973 10974 10975 10975 10976 10976 10977 10977 10977 10977 10977 10977 10977 10976 10976 10975 10975 10974 10974 10973 10972 10972 10971 10970 10970 10969 10969 10968 10966 10965 10964 10962 10961 10961 10960 10959 10959 10958 10957 10956 10955 10954 10953 10952 10951 10950 10949 10947 10946 10945 10944 10942 10940 10939 10937 10936 10934 10933 10932 10930 10929 10927 10925 10924 10922 10921 10920 10919 10917 10916 10914 10913 10911 10909 10908 10906
10967 10968 10969 10969 10970 10970 10971 10971 10972 10973 10974 10975 10976 10976 10977 10977 10977 10977 10977 10977 10977 10977 10977 10976 10976 10976 10975 10975 10974 10973 10973 10972 10972 10971 10970 10970 10969 10968 10967 10966 10964 10963 10962 10961 10961 10960 10958 10957 10956 10955 10954 10953 10952 10951 10950 10949 10948 10947 10946 10944 10943 10941 10940 10939 10937 10936 10935 10934 10932 10930 10929 10927 10926 10924 10923 10921 10920 10918 10916 10915 10913 10911 10909 10907 10905
10967 10968 10969 10970 10970 10971 10971 10972 10973 10974 10975 10976 10976 10977 10977 10978 10978 10978 10978 10978 10977 10977 10977 10977 10976 10976 10976 10975 10974 10974 10974 10973 10973 10972 10972 10971 10970 10970 10968 10967 10966 10964 10963 10962 10962 10960 10959 10957 10956 10955 10954 10953 10952 10951 10951 10950 10949 10948 10946 10945 10943 10942 10940 10940 10939 10937 10936 10935 10933 10932 10930 10928 10927 10926 10924 10922 10921 10919 10918 10915 10913 10911 10910 10908 10906
10967 10969 10969 10970 10971 10971 10972 10973 10974 10975 10975 10976 10977 10977 10978 10978 10978 10978 10978 10978 10978 10977 10977 10977 10977 10976 10976 10975 10975 10975 10974 10974 10974 10973 10972 10972 10971 10970 10969 10968 10967 10966 10965 10964 10962 10961 10959 10958 10956 10955 10954 10953 10952 10951 10950 10950 10949 10948 10946 10945 10944 10942 10941 10940 10939 10938 10936 10935 10933 10932 10930 10929 10928 10927 10925 10923 10922 10920 10919 10916 10914 10912 10910 10909 10907
10968 10969 10969 10970 10971 10972 10973 10973 10974 10975 10976 10977 10977 10978 10978 10978 10978 10978 10978 10978 10978 10978 10977 10977 10977 10976 10976 10975 10975 10975 10975 10974 10974 10974 10973 10973 10972 10971 10970 10969 10968 10967 10966 10964 10963 10961 10960 10958 10956 10955 10954 10953 10952 10951 10950 10949 10949 10947 10946 10945 10944 10943 10941 10939 10938 10937 10936 10935 10933 10931 10930 10929 10928 10926 10925 10924 10922 10921 10919 10917 10915 10913 10911 10910 10908
10968 10969 10970 10971 10971 10972 10973 10974 10975 10976 10976 10977 10978 10978 10978 10979 10979 10979 10979 10978 10978 10978 10978 10977 10977 10976 10976 10975 10975 10975 10975 10975 10974 10974 10973 10973 10972 10971 10970 10970 10969 10967 10966 10965 10963 10962 10960 10958 10957 10956 10955 10954 10953 10952 10950 10949 10948 10947 10946 10945 10944 10943 10941 10939 10938 10936 10935 10934 10932 10931 10930 10929 10927 10925 10924 10923 10922 10920 10919 10917 10915 10914 10912 10910 10909
10968 10969 10970 10971 10972 10973 10973 10974 10975 10976 10977 10978 10978 10978 10979 10979 10979 10979 10979 10979 10978 10978 10978 10978 10977 10977 10976 10976 10975 10975 10975 10975 10974 10974 10973 10973 10972 10971 10971 10970 10969 10968 10966 10965 10964 10962 10961 10959 10958 10957 10956 10955 10954 10952 10951 10950 10948 10947 10946 10945 10944 10942 10941 10939 10937 10936 10935 10933 10931 10930 10929 10927 10926 10924 10923 10922 10921 10919 10918 10917 10915 10913 10912 10910 10909
10969 10970 10971 10972 10972 10973 10974 10975 10975 10976 10977 10978 10978 10979 10979 10979 10979 10979 10979 10979 10979 10979 10979 10979 10978 10977 10977 10977 10976 10976 10976 10975 10975 10974 10974 10973 10972 10971 10971 10970 10969 10968 10966 10965 10964 10963 10961 10960 10959 10958 10957 10955 10954 10953 10951 10950 10949 10947 10946 10945 10943 10942 10940 10939 10937 10935 10934 10932 10931 10929 10927 10925 10924 10923 10921 10920 10920 10918 10917 10915 10914 10913 10911 10910 10908
10969 10970 10971 10972 10973 10973 10974 10975 10976 10976 10977 10978 10978 10979 10979 10979 10979 10979 10979 10980 10980 10979 10979 10979 10978 10978 10978 10978 10977 10977 10976 10975 10975 10975 10974 10973 10972 10972 10971 10970 10969 10968 10967 10966 10965 10964 10962 10961 10960 10959 10957 10956 10955 10953 10952 10950 10949 10948 10946 10944 10943 10941 10940 10938 10937 10935 10933 10932 10930 10929 10927 10924 10922 10921 10920 10919 10918 10917 10916 10915 10913 10912 10910 10909 10908
10970 10970 10971 10972 10973 10974 10975 10975 10976 10977 10977 10978 10978 10979 10979 10980 10980 10980 10980 10980 10980 10979 10979 10979 10978 10978 10978 10978 10978 10977 10976 10976 10975 10975 10974 10973 10973 10972 10971 10970 10969 10969 10968 10967 10965 10964 10963 10962 10961 10959 10958 10956 10955 10954 10952 10951 10949 10948 10946 10944 10942 10941 10940 10938 10936 10935 10933 10931 10930 10929 10927 10925 10922 10920 10918 10917 10917 10916 10915 10914 10913 10911 10909 10908 10907
10970 10971 10972 10973 10974 10975 10975 10976 10976 10977 10978 10978 10978 10979 10980 10980 10980 10980 10980 10980 10980 10980 10979 10979 10979 10978 10978 10978 10978 10977 10977 10976 10975 10975 10974 10973 10973 10972 10971 10971 10970 10969 10968 10967 10966 10965 10964 10962 10961 10960 10958 10957 10955 10954 10953 10951 10950 10948 10946 10944 10942 10941 10939 10938 10936 10934 10932 10931 10929 10928 10926 10924 10922 10920 10917 10915 10915 10914 10913 10913 10912 10910 10908 10907 10905
10971 10972 10973 10974 10975 10975 10976 10976 10977 10977 10978 10978 10979 10979 10980 10980 10980 10980 10980 10980 10980 10980 10979 10979 10979 10979 10979 10979 10978 10978 10977 10976 10976 10975 10974 10974 10973 10973 10972 10972 10971 10970 10969 10967 10966 10965 10964 10963 10961 10960 10958 10957 10955 10954 10953 10951 10950 10948 10946 10944 10942 10940 10938 10937 10935 10933 10932 10930 10928 10927 10925 10923 10921 10919 10916 10914 10913 10912 10911 10910 10909 10909 10907 10905 10904
10971 10972 10973 10974 10975 10976 10976 10977 10977 10978 10978 10979 10979 10980 10980 10980 10981 10981 10980 10980 10980 10980 10979 10979 10979 10979 10979 10979 10979 10978 10977 10977 10976 10976 10975 10975 10974 10974 10973 10972 10971 10970 10969 10968 10966 10965 10964 10963 10961 10960 10958 10957 10955 10954 10953 10951 10949 10947 10945 10943 10941 10939 10937 10935 10934 10932 10931 10929 10927 10925 10924 10922 10920 10918 10915 10913 10911 10910 10909 10908 10907 10906 10905 10904 10902
10971 10972 10973 10974 10975 10976 10976 10977 10977 10978 10978 10979 10979 10980 10980 10981 10981 10981 10980 10980 10980 10980 10979 10979 10979 10980 10980 10980 10979 10979 10978 10977 10977 10977 10976 10975 10975 10974 10973 10973 10972 10971 10969 10968 10967 10965 10964 10963 10961 10959 10958 10956 10955 10954 10952 10951 10949 10947 10945 10943 10941 10939 10936 10934 10932 10931 10930 10928 10926 10924 10923 10921 10919 10917 10915 10912 10909 10907 10906 10905 10904 10903 10903 10901 10900
10972 10973 10974 10975 10976 10976 10977 10977 10978 10978 10979 10979 10980 10980 10980 10981 10981 10981 10980 10980 10980 10980 10980 10980 10980 10980 10980 10980 10980 10979 10978 10978 10978 10977 10977 10976 10975 10974 10973 10972 10972 10971 10970 10968 10967 10966 10964 10963 10961 10959 10957 10955 10954 10953 10951 10950 10948 10946 10945 10943 10941 10938 10936 10934 10931 10929 10928 10926 10925 10923 10921 10920 10918 10916 10914 10911 10908 10905 10903 10902 10901 10901 10900 10899 10897
10973 10974 10975 10976 10977 10977 10978 10978 10979 10979 10979 10980 10980 10980 10980 10981 10981 10981 10980 10980 10980 10980 10980 10980 10980 10980 10980 10980 10980 10979 10978 10978 10978 10977 10977 10976 10975 10975 10974 10973 10972 10971 10969 10968 10967 10966 10964 10963 10961 10959 10957 10955 10953 10952 10951 10949 10947 10946 10943 10941 10939 10937 10935 10933 10930 10928 10926 10924 10922 10921 10920 10918 10916 10914 10912 10910 10907 10905 10903 10901 10899 10898 10897 10895 10894
10973 10974 10975 10976 10977 10977 10978 10979 10979 10979 10980 10980 10980 10980 10980 10980 10980 10980 10980 10980 10980 10980 10980 10980 10980 10980 10980 10980 10980 10979 10978 10978 10978 10977 10977 10976 10976 10975 10974 10973 10972 10970 10969 10968 10967 10965 10964 10962 10961 10959 10957 10955 10953 10952 10950 10948 10946 10945 10943 10941 10939 10937 10935 10932 10930 10928 10925 10923 10920 10919 10917 10916 10914 10912 10910 10907 10905 10904 10902 10900 10898 10896 10894 10893 10891
10973 10974 10975 10976 10977 10978 10978 10979 10979 10979 10980 10980 10980 10980 10980 10980 10980 10980 10980 10980 10980 10980 10980 10980 10980 10980 10980 10980 10979 10978 10978 10978 10978 10977 10977 10976 10976 10975 10974 10973 10972 10971 10969 10968 10967 10965 10963 10962 10960 10958 10957 10955 10953 10951 10949 10947 10946 10944 10943 10941 10939 10936 10934 10932 10929 10927 10925 10923 10920 10917 10915 10913 10912 10910 10907 10905 10903 10902 10900 10898 10896 10894 10892 10890 10888
10973 10973 10974 10975 10976 10977 10977 10978 10978 10978 10979 10979 10980 10980 10980 10980 10980 10980 10979 10979 10980 10980 10980 10980 10980 10980 10980 10980 10979 10978 10978 10978 10978 10977 10977 10976 10975 10975 10974 10973 10972 10971 10969 10968 10966 10965 10963 10961 10960 10958 10957 10955 10953 10951 10949 10947 10945 10944 10942 10941 10938 10936 10933 10930 10928 10926 10924 10922 10919 10916 10914 10912 10910 10908 10906 10904 10902 10900 10899 10897 10895 10892 10890 10888 10886
10971 10972 10973 10973 10974 10975 10976 10976 10976 10977 10977 10978 10978 10979 10979 10979 10979 10979 10979 10979 10979 10979 10979 10980 10980 10980 10980 10980 10979 10978 10977 10978 10977 10977 10976 10975 10975 10974 10973 10972 10971 10970 10969 10968 10966 10964 10963 10961 10959 10958 10956 10954 10952 10950 10948 10946 10944 10943 10941 10940 10938 10935 10933 10930 10927 10924 10922 10921 10919 10916 10914 10911 10909 10906 10903 10902 10900 10898 10896 10895 10893 10891 10889 10886 10884